Location: Unspecified
(0.0000°N, 0.0000°E)
Time: 01:52:03
(UTC+02:00)

Meteor PRIRODA - Visible Passes

Search period start: 25 October 2014 00:00
Search period end: 03 November 2014 23:00
Orbit: 509 x 532 km, 97.3° (Epoch: 24 October)

Date Brightness Start Highest point End Pass type
(mag) Time Alt. Az. Time Alt. Az. Time Alt. Az.
25 Oct 6.9 05:55:12 10° ENE 05:57:14 14° ESE 05:59:16 10° SE visible
26 Oct 4.7 06:14:48 10° NNW 06:17:51 25° W 06:20:56 10° SW visible
27 Oct 4.0 06:01:05 10° N 06:04:34 40° W 06:08:04 10° SSW visible
28 Oct 3.5 05:47:34 10° N 05:51:15 70° WNW 05:54:57 10° SSW visible
29 Oct 4.0 05:34:15 10° NNE 05:37:55 68° E 05:41:38 10° S visible
30 Oct 5.1 05:21:07 10° NNE 05:24:35 39° E 05:28:05 10° S visible
31 Oct 6.1 05:08:13 10° NE 05:11:14 24° ESE 05:14:17 10° SSE visible
01 Nov 6.9 04:55:42 10° ENE 04:57:53 15° ESE 05:00:03 10° SE visible
02 Nov 4.8 06:15:22 10° NNW 06:18:23 24° W 06:21:25 10° SW visible
03 Nov 4.1 06:01:30 10° N 06:04:59 39° W 06:08:29 10° SSW visible
